sat.trackr.live / text

‹ back to catalog

STARLINK-30807

NORAD 58192 · 2023-167T

PAYLOAD ACTIVE UNKNOWN

§ Identity

Operator
Country
US
Launch date
2023-10-30
Launch site
AFETR
Launch vehicle
Mass (kg)
RCS (m²)

Purposes: comms

External: N2YO · Heavens-Above · Gunter

§ Orbital elements

Epoch: 2026-09-20T08:06:59.034528Z

Period
94.27 min
Inclination
43.0016°
Eccentricity
0.0000049
Mean motion
15.27588568 rev/d
Perigee alt
483.0 km
Apogee alt
483.1 km
Semi-major
6,861.2 km
B*
3.8530e-4
RAAN
124.1619°
Arg perigee
68.9326°
Mean anomaly
291.1531°
Rev number
16,075

§ Raw data

STARLINK-308071 58192U 23167T   26263.33818327  .00010359  00000+0  38530-3 0  99972 58192  43.0016 124.1619 0000049  68.9326 291.1531 15.27588568160758

JSON: /api/v1/satellites/58192 · /tle

For live sub-satellite position, see the globe view (requires WebGL).

§ Visibility from observer

Set your observer location to see the next 7 days of passes ≥ 10°. The values pass through the URL so the page stays shareable.

No JS? Fill the form by hand. The geolocation button needs JavaScript.